Home > Weather > Vista > Past weeks

Flag for USA Weather for the Past 2 Weeks in Vista, California, USA

Now
62 °F

Broken clouds.


Feels Like: 62 °F
Forecast: 55 / 64 °F
Wind: 8 mph from Southwest

Location: McClellan-Palomar Airport

Current Time: May 6, 2016 at 2:20:45 PM

Latest Report: May 6, 2016 at 1:53 PM


Visibility: 10 mi

Pressure: 29.90 "Hg

Humidity: 75%

Dew Point: 54 °F

Location of VistaLocation

Historic Weather in Vista — Graph

°F

Vista Temperature Yesterday

Maximum temperature yesterday: 65 °F (at 2:53 PM)
Minimum temperature yesterday: 59 °F (at 11:53 PM)
Average temperature yesterday: 62 °F

High & Low Weather Summary for the Past Weeks

 TemperatureHumidityPressure
High71 °F (Apr 21, 4:53 PM)93% (May 6, 6:04 AM)30.03 "Hg (May 6, 6:04 AM)
Low52 °F (Apr 26, 5:53 AM)44% (Apr 21, 12:53 PM)29.78 "Hg (Apr 30, 3:53 PM)
Average61 °F72%29.92 "Hg
* Reported Apr 21 12:53 PM — May 6 12:53 PM, Vista, Weather by CustomWeather, © 2016

Note: Actual official high and low records may vary slightly from our data, if they occured in-between our weather recording intervals... More about our weather records

Advertising

Vista Weather History for the Previous 24 Hours

Scroll right to see more
 ConditionsComfort  
Time TempWeatherWind HumidityBarometerVisibility
12:53 PM
Fri, May 6
62 °FPartly sunny.5 mph75%29.90 "Hg10 mi
11:53 AM59 °FMostly cloudy.7 mph87%29.92 "Hg10 mi
10:53 AM58 °FLight rain. Mostly cloudy.8 mph87%29.92 "Hg10 mi
9:53 AM58 °FLight rain. Overcast.9 mph90%29.89 "Hg9 mi
8:53 AM58 °FLight rain. Fog.6 mph90%29.89 "Hg6 mi
7:53 AM58 °FLight rain. Overcast.6 mph90%29.87 "Hg10 mi
6:53 AM57 °FMostly cloudy.5 mph93%29.85 "Hg10 mi
6:04 AM57 °FLight rain. Overcast.7 mph93%29.84 "Hg7 mi
4:53 AM57 °FLight rain. Mostly cloudy.3 mph90%29.82 "Hg10 mi
3:53 AM57 °FPassing clouds.6 mph90%29.83 "Hg10 mi
2:53 AM58 °FPartly cloudy.No wind87%29.83 "Hg10 mi
1:53 AM58 °FMostly cloudy.No wind84%29.84 "Hg10 mi
12:53 AM59 °FOvercast.No wind90%29.87 "Hg10 mi
11:53 PM
Thu, May 5
59 °FLight rain. Mostly cloudy.No wind90%29.88 "Hg9 mi
10:53 PM62 °FPartly cloudy.3 mph67%29.88 "Hg10 mi
9:53 PM62 °FMostly cloudy.3 mph67%29.88 "Hg10 mi
8:53 PM62 °FOvercast.7 mph67%29.87 "Hg10 mi
7:53 PM62 °FScattered clouds.3 mph67%29.85 "Hg10 mi
6:53 PM63 °FOvercast.8 mph63%29.85 "Hg10 mi
5:53 PM64 °FOvercast.7 mph58%29.86 "Hg10 mi
4:53 PM64 °FOvercast.5 mph61%29.88 "Hg10 mi
3:53 PM65 °FOvercast.12 mph56%29.90 "Hg10 mi
2:53 PM65 °FMostly cloudy.7 mph56%29.92 "Hg10 mi
Weather by CustomWeather, © 2016

See weather overviewHow to use our weather pages